Regional Weather Roundup
Issued by NWS

Home | Current Version | Previous Version | Graphics & Text | Print | Product List | Glossary Off
Versions: 1 2 3 4 5 6 7 8 9 10 11 12 13 14 15 16 17 18 19 20 21 22 23 24 25 26 27 28 29 30 31 32 33 34 35 36 37 38 39 40 41 42 43 44 45 46 47 48 49 50

000
ASUS43 KMKX 011500
RWRWI

WISCONSIN REGIONAL WEATHER ROUNDUP
NATIONAL WEATHER SERVICE MILWAUKEE/SULLIVAN WI
1000 AM CDT SAT AUG 01 2015

NOTE: "FAIR" INDICATES FEW OR NO CLOUDS BELOW 12,000 FEET WITH NO
SIGNIFICANT WEATHER AND/OR OBSTRUCTIONS TO VISIBILITY.

WIZ001-002-006>008-014>016-023>028-011600-
NORTHWEST WISCONSIN

CITY           SKY/WX    TMP DP  RH WIND       PRES   REMARKS
SUPERIOR ARPT  SUNNY     72  58  61 W5        29.92F
ASHLAND        SUNNY     74  57  55 VRB6      29.92F
HAYWARD        SUNNY     72  51  47 W8        29.95F
SIREN          SUNNY     71  56  59 SW3       29.96S
CUMBERLAND     SUNNY     70  55  60 CALM      29.97S
RICE LAKE      SUNNY     70  57  63 SW3       29.98S
CHETEK         SUNNY     72  55  54 CALM      29.97S
LADYSMITH      SUNNY     72  53  51 NW7       29.98S
EAU CLAIRE     MOSUNNY   74  56  53 S3        29.96F
MENOMONIE      MOSUNNY   72  53  51 CALM      29.98S
NEW RICHMOND   SUNNY     74  57  55 S6        29.97F
OSCEOLA        SUNNY     73  62  68 CALM      29.99F
$$

WIZ003>005-009-010-017-018-011600-
NORTH CENTRAL WISCONSIN

CITY           SKY/WX    TMP DP  RH WIND       PRES   REMARKS
MANITOWISH WTR SUNNY     67  56  66 NW8       29.94S
ARBOR VITAE    SUNNY     67  55  66 NW8       29.94F
WOODRUFF       SUNNY     67  55  66 NW8       29.94F
RHINELANDER    SUNNY     69  54  58 NW8       29.96R
EAGLE RIVER    SUNNY     68  52  56 NW10      29.93F
LAND O LAKES   SUNNY     68  52  56 NW9       29.94S
PHILLIPS       SUNNY     67  55  66 NW6       29.96S
TOMAHAWK       SUNNY     67  55  64 W10       29.96S
MEDFORD        SUNNY     69  53  56 NW9       29.97F
MERRILL        NOT AVBL
$$

WIZ029-030-035-036-043>047-011600-
CENTRAL WISCONSIN

CITY           SKY/WX    TMP DP  RH WIND       PRES   REMARKS
WAUSAU         SUNNY     74  51  44 N7G18     29.94F
MOSINEE        MOSUNNY   72  52  49 NW9G17    29.97F
MARSHFIELD     PTSUNNY   74  51  44 NW8       29.97F
STEVENS POINT  CLOUDY    68  51  54 W6        29.98R
WAUPACA        MOSUNNY   75  51  43 W8        29.96S
WAUTOMA        NOT AVBL
WISC RAPIDS    PTSUNNY   74  52  46 NW5       29.98F
CAMP DOUGLAS   NOT AVBL
$$

WIZ011>013-019>022-031-037>040-048>050-011600-
NORTHEAST WISCONSIN

CITY           SKY/WX    TMP DP  RH WIND       PRES   REMARKS
ANTIGO         SUNNY     66  55  66 NW8       29.96R
SHAWANO        SUNNY     73  55  53 W8        29.93F
OCONTO         SUNNY     72  55  54 W8        29.90S
STURGEON BAY   SUNNY     72  54  53 W10       29.92S
GREEN BAY      SUNNY     74  56  53 NW13      29.92F
MANITOWOC      NOT AVBL
APPLETON       MOSUNNY   73  50  43 W10       29.95S
CLINTONVILLE   SUNNY     72  50  46 NW12      29.94S
OSHKOSH        SUNNY     75  53  46 W10       29.94F
$$

WIZ032>034-041-042-053>061-011600-
SOUTHWEST WISCONSIN

CITY           SKY/WX    TMP DP  RH WIND       PRES   REMARKS
LA CROSSE      SUNNY     75  59  57 SW3       29.96F
SPARTA         MOSUNNY   73  57  57 CALM      29.98S
VIROQUA        SUNNY     73  60  63 CALM      30.00S
BOSCOBEL       SUNNY     77  61  57 SW5       29.98F
PRAIRIE DU CHI MOSUNNY   73  60  64 CALM      29.99S
PLATTEVILLE    MOSUNNY   73  64  74 W3        30.01R
$$

WIZ056-057-062-063-064-067-068-011600-
SOUTH CENTRAL WISCONSIN

CITY           SKY/WX    TMP DP  RH WIND       PRES   REMARKS
REEDSBURG      PTSUNNY   71  59  65 W3        29.98S
BARABOO/DELLS  CLOUDY    70  56  59 W3        29.99S
LONE ROCK      NOT AVBL
MINERAL POINT  PTSUNNY   73  59  60 NW3       30.01S
MADISON        PTSUNNY   73  59  61 W5        29.98F
MIDDLETON      PTSUNNY   74  57  56 W8        30.00S
WATERTOWN      PTSUNNY   72  58  62 NW8       29.98S
MONROE         MOSUNNY   72  59  64 W8        30.00S
JANESVILLE     PTSUNNY   75  57  53 W9        29.88F
$$

WIZ051-052-058>065-066-070>072-011600-
SOUTHEAST WISCONSIN

CITY           SKY/WX    TMP DP  RH WIND       PRES   REMARKS
MILWAUKEE      MOSUNNY   77  53  43 NW9       29.96F
WAUKESHA       MOSUNNY   72  54  53 W10G17    29.99S
MILWAUKEE/TIMM PTSUNNY   73  52  46 NW9       29.97F
RACINE         MOSUNNY   78  55  44 W8        29.98F
BURLINGTON     PTSUNNY   73  56  55 W6        29.98S
KENOSHA        SUNNY     76  59  55 W8        29.98S
FOND DU LAC    SUNNY     76  53  44 W10       29.95F
SHEBOYGAN      SUNNY     75  55  49 W12       29.94S
WEST BEND      MOSUNNY   72  52  49 W8        29.97S
JUNEAU         PTSUNNY   70  57  63 W5        29.98F
$$

LSZ147-162-011600-
LAKE SUPERIOR

STATION/POSITION TIME  TEMP    WIND        PRES    WAVE
                       AIR SEA DIR/SP/G            HT/PER
                 (UTC) (F)     (DEG/KT/KT) (MB)    (FT/S)
W MID LAKE BUOY  1350   57 54  250/ 12/ 14 1011.7S   1/ 3
DEVILS ISLAND    1400   60     250/ 15/ 18 1012.5F
PORT WING        1440   67     250/  9/ 12 1013.2F
SAXON HARBOR     1400   68                 1012.9S
$$

LMZ867-665-643>646-011600-
LAKE MICHIGAN

STATION/POSITION TIME  TEMP    WIND        PRES    WAVE
                       AIR SEA DIR/SP/G            HT/PER
                 (UTC) (F)     (DEG/KT/KT) (MB)    (FT/S)
CHAMBERS ISLAND  1400   69     260/  5/  8 1011.9S
S GREEN BAY BUOY 1430   65 68  270/  8/ 10 1014.0F
N MID LAKE BUOY  1350   65 68  280/ 10/ 12 1011.3R   1/ 3
NORTHPORT PIER   1400   69     310/  7/  9 1011.9S
SISTER BAY       1429   74     300/  6/  7   N/A
ALGOMA LAKESHORE 1427          270/  7/  8   N/A
KEWAUNEE LAKESHO 1400   69     300/  5/ 11 1012.3R
SHEBOYGAN LAKESH 1400   71     280/ 10/ 12 1013.9R
PORT WASHINGTON  1400   75     280/  7/ 13 1014.9R
ATWATER BUOY     1400   67 64  270/  6/  6 1015.9R
MILWAUKEE LAKESH 1400   72     290/  7/ 10   N/A
KENOSHA   LAKESH 1400   73     290/  8/ 12 1014.6S
$$

TC  - TEMPERATURE IN CELSIUS
VSB - VISIBILITY IN STATUTE MILES
WCI - WIND CHILL INDEX
HX  - HEAT INDEX



USA.gov is the U.S. government's official web portal to all federal, state and local government web resources and services.